Date,TemperatureHighF,TemperatureAvgF,TemperatureLowF,DewpointHighF,DewpointAvgF,DewpointLowF,HumidityHigh,HumidityAvg,HumidityLow,PressureMaxIn,PressureMinIn,WindSpeedMaxMPH,WindSpeedAvgMPH,GustSpeedMaxMPH,PrecipitationSumIn
2013-1-1,32.5,28.8,25.3,20.5,17.8,15.2,66,63,59,29.93,29.83,11,8,15,0.11
2013-1-2,30.9,25.1,19.4,19.0,14.6,9.0,73,64,59,30.09,29.92,10,6,16,0.00
2013-1-3,27.5,19.9,11.2,19.0,7.9,1.6,70,60,44,30.16,30.03,8,5,13,0.00
2013-1-4,37.7,33.4,27.7,30.2,25.4,19.0,78,72,63,30.03,29.87,14,8,20,0.05
2013-1-5,42.8,35.2,29.3,29.7,25.6,22.0,78,68,51,30.28,29.90,10,5,14,0.05
2013-1-6,40.6,34.9,29.8,36.1,31.2,21.6,95,86,68,30.25,29.97,9,3,16,0.03
2013-1-7,41.5,34.3,29.2,33.7,29.7,26.2,95,84,64,30.43,29.99,7,3,12,0.00
2013-1-8,44.0,39.6,30.6,38.4,35.7,28.8,94,86,74,30.42,30.33,12,6,18,0.00
2013-1-9,46.8,40.6,33.0,42.5,38.1,32.0,97,91,79,30.42,30.06,12,4,16,0.00
2013-1-10,47.1,41.5,33.3,36.8,29.3,26.5,77,62,47,30.53,30.10,13,6,20,0.00
2013-1-11,42.8,36.1,28.5,38.0,31.2,24.4,95,83,71,30.52,30.23,5,2,10,0.12
2013-1-12,45.2,42.2,39.5,44.4,41.2,38.5,97,96,95,30.25,30.14,7,3,10,0.03
2013-1-13,53.5,47.1,43.5,52.9,46.4,42.7,98,97,96,30.19,30.06,6,2,7,0.02
2013-1-14,54.1,48.8,42.9,53.5,46.8,36.9,99,93,70,30.26,29.97,8,4,11,0.01
2013-1-15,42.3,38.9,37.2,38.6,36.1,32.9,96,90,81,30.31,30.22,3,2,6,0.14
2013-1-16,40.9,37.8,35.7,40.1,36.7,33.0,97,96,82,30.25,29.75,8,3,8,0.57
2013-1-17,43.2,38.1,33.8,35.8,32.7,26.7,97,81,66,30.09,29.88,7,4,11,0.00
2013-1-18,33.7,25.4,22.6,26.6,11.4,3.0,93,57,37,30.51,30.04,8,5,17,0.01
2013-1-19,46.1,40.3,26.1,42.7,33.9,16.3,90,78,57,30.45,29.97,12,8,22,0.04
2013-1-20,48.8,44.1,31.2,44.2,36.4,16.1,92,75,50,29.97,29.62,13,9,21,0.00
2013-1-21,31.5,28.2,24.7,26.2,16.8,10.0,94,64,44,30.13,29.78,11,4,12,0.00
2013-1-22,27.7,23.2,16.2,26.2,12.8,2.6,94,67,41,30.09,29.74,12,7,16,0.03
2013-1-23,18.4,14.0,10.1,5.2,0.1,-3.9,67,53,44,30.18,30.08,12,9,19,0.00
2013-1-24,20.4,14.0,7.2,1.4,-1.7,-5.0,62,49,38,30.23,30.07,14,9,23,0.00
2013-1-25,24.5,18.9,11.7,16.1,2.7,-3.6,84,49,38,30.33,30.06,10,6,14,0.00
2013-1-26,27.2,20.6,15.6,18.4,10.5,-0.5,96,67,42,30.23,29.99,10,5,16,0.00
2013-1-27,31.3,23.1,15.7,10.3,7.8,3.7,67,52,38,30.48,30.24,10,6,16,0.00
2013-1-28,33.4,27.6,18.8,31.8,18.2,7.1,96,70,35,30.47,30.01,5,2,9,0.01
2013-1-29,36.8,34.6,32.3,36.0,33.6,31.3,97,96,95,30.22,30.00,4,1,5,0.04
2013-1-30,60.5,50.9,36.6,58.1,49.5,35.8,98,95,88,30.17,29.57,14,8,27,0.09
2013-1-31,59.5,58.4,57.3,56.9,56.0,55.4,96,92,90,29.57,29.15,15,13,34,0.14
2013-2-1,31.7,28.2,24.4,13.5,11.9,9.3,57,50,42,30.11,29.82,11,8,16,0.00
2013-2-2,32.2,27.1,21.6,26.7,15.2,7.7,89,61,45,30.28,30.07,10,8,20,0.00
2013-2-3,35.3,27.9,21.9,27.5,23.3,18.6,90,83,71,30.08,29.72,7,4,10,0.02
2013-2-4,31.9,27.6,24.5,22.7,15.8,11.6,88,62,45,29.97,29.73,12,8,24,0.00
2013-2-5,29.4,25.8,23.8,27.9,19.3,13.1,94,77,60,30.05,29.93,6,3,10,0.00
2013-2-6,38.5,32.7,28.9,32.9,25.8,12.1,95,77,48,30.30,29.92,9,4,13,0.03
2013-2-7,31.5,26.6,22.4,22.1,12.0,7.3,80,55,36,30.55,30.31,8,3,8,0.00
2013-2-8,33.5,32.1,27.7,32.3,28.9,22.3,96,88,80,30.49,29.72,13,9,16,0.05